This demonstration page uses our WeatherBlox Daily Observations layout. Learn more.

Left ArrowRight Arrow

Hourly Observations for October 30, 2021

Temp ( °F °C ) Dew Point ( °F °C ) Humidity (%) Winds ( mph kmh ) Pressure ( in mb ) Visibility ( mi km ) Precip ( " mm )
12:53 am 00:53 Cloudy 51 10.6 51 10.6 100 100 Calm 29.62 1003 10 16 0.00 0.00
1:51 am 01:51 Cloudy with Mist and Fog 52 11 50 10 94 94 SW 5 7 29.63 1003 5 8 0.00 0.00
1:53 am 01:53 Cloudy with Mist and Fog 51 10.6 50 10 96 96 SW 3 6 29.61 1003 5 8 0.00 0.00
2:02 am 02:02 Cloudy 51 10.6 50 10 96 96 SW 3 6 29.63 1003 10 16 0.00 0.00
2:09 am 02:09 Cloudy 52 11.1 51 10.6 97 97 VRB 3 6 29.63 1003 10 16 0.00 0.00
2:37 am 02:37 Cloudy 52 11.1 50 10 93 93 Calm 29.63 1003 10 16 0.00 0.00
2:53 am 02:53 Cloudy 52 11.1 51 10.6 97 97 Calm 29.61 1003 10 16 0.00 0.00
3:17 am 03:17 Mostly Cloudy 52 11.1 50 10 93 93 Calm 29.62 1003 10 16 0.00 0.00
3:37 am 03:37 Mostly Cloudy 51 10.6 50 10 96 96 Calm 29.62 1003 10 16 0.00 0.00
3:53 am 03:53 Cloudy 51 10.6 50 10 96 96 SW 3 6 29.60 1002 10 16 0.00 0.00
4:23 am 04:23 Cloudy 52 11.1 51 10.6 97 97 Calm 29.61 1003 10 16 0.00 0.00
4:36 am 04:36 Cloudy 52 11.1 51 10.6 97 97 Calm 29.61 1003 10 16 0.00 0.00
4:53 am 04:53 Cloudy 52 11.1 51 10.6 97 97 SW 3 6 29.60 1002 10 16 0.00 0.00
5:34 am 05:34 Cloudy 52 11.1 51 10.6 97 97 SW 5 7 29.63 1003 10 16 0.00 0.00
5:53 am 05:53 Cloudy 53 11.7 51 10.6 93 93 SW 3 6 29.61 1003 10 16 0.00 0.00
6:02 am 06:02 Cloudy 53 11.7 51 10.6 93 93 Calm 29.62 1003 10 16 0.00 0.00
6:31 am 06:31 Cloudy 53 11.7 51 10.6 93 93 SSW 5 7 29.63 1004 10 16 0.00 0.00
6:53 am 06:53 Cloudy 53 11.7 51 10.6 93 93 SW 5 7 29.62 1003 10 16 0.00 0.00
7:53 am 07:53 Cloudy 53 11.7 51 10.6 93 93 SW 6 9 29.63 1003 10 16 0.00 0.00
8:33 am 08:33 Cloudy 53 11.7 51 10.6 93 93 SW 6 9 29.65 1004 10 16 0.00 0.00
8:53 am 08:53 Cloudy 53 11.7 52 11.1 96 96 SW 6 9 29.65 1004 10 16 0.00 0.00
9:30 am 09:30 Cloudy 54 12.2 52 11.1 93 93 SSW 7 11 29.67 1005 10 16 0.00 0.00
9:47 am 09:47 Cloudy 54 12 52 11 94 94 SSW 7 11 29.68 1005 10 16 0.00 0.00
9:53 am 09:53 Cloudy 54 12.2 52 11.1 93 93 SW 5 7 29.67 1005 10 16 0.00 0.00
10:38 am 10:38 Cloudy with Light Rain 54 12.2 53 11.7 97 97 SSW 6 9 29.69 1006 4 6 0.00 0.00
10:53 am 10:53 Cloudy 55 12.8 54 12.2 96 96 SSW 6 9 29.68 1005 10 16 0.00 0.00
11:15 am 11:15 Cloudy 55 12.8 53 11.7 93 93 SW 7 11 29.69 1005 10 16 0.00 0.00
11:53 am 11:53 Cloudy 57 13.9 52 11.1 83 83 W 9 15 29.68 1005 10 16 0.00 0.00
12:50 pm 12:50 Cloudy 57 14 50 10 77 77 W 12 19 29.69 1005 10 16 0.00 0.00
12:53 pm 12:53 Cloudy 57 13.9 50 10 78 78 W 12 19 29.68 1005 10 16 0.00 0.00
1:53 pm 13:53 Cloudy with Light Rain 59 15 49 9.4 69 69 WSW 9 15 29.66 1004 10 16 0.00 0.00
2:04 pm 14:04 Cloudy with Light Rain 58 14.4 50 10 75 75 WSW 9 15 29.67 1005 10 16 0.00 0.00
2:53 pm 14:53 Cloudy with Light Rain 56 13.3 52 11.1 87 87 W 7 11 29.67 1005 10 16 0.01 0.25
3:53 pm 15:53 Cloudy 56 13.3 51 10.6 84 84 WSW 7 11 29.67 1005 10 16 0.01 0.25
4:23 pm 16:23 Cloudy with Light Rain 55 12.8 50 10 83 83 W 12 19 29.69 1005 10 16 0.00 0.00
4:53 pm 16:53 Cloudy with Light Rain 55 12.8 51 10.6 87 87 WSW 8 13 29.70 1006 6 10 0.00 0.00
5:53 pm 17:53 Cloudy 54 12.2 52 11.1 93 93 WSW 7 11 29.71 1006 8 13 0.01 0.25
6:14 pm 18:14 Cloudy with Light Rain 53 11.7 51 10.6 93 93 WSW 7 11 29.73 1007 6 10 0.00 0.00
6:26 pm 18:26 Cloudy with Light Rain 53 11.7 51 10.6 93 93 WSW 8 13 29.73 1007 6 10 0.00 0.00
6:35 pm 18:35 Cloudy with Light Rain 53 11.7 51 10.6 93 93 WSW 7 11 29.74 1007 6 10 0.01 0.25
6:53 pm 18:53 Cloudy 53 11.7 51 10.6 93 93 WSW 5 7 29.73 1007 8 13 0.01 0.25
7:07 pm 19:07 Cloudy 53 11.7 51 10.6 93 93 W 6 9 29.75 1008 10 16 0.00 0.00
7:33 pm 19:33 Cloudy 53 11.7 51 10.6 93 93 WSW 6 9 29.75 1008 10 16 0.00 0.00
7:53 pm 19:53 Cloudy 53 11.7 51 10.6 93 93 W 9 15 29.75 1007 10 16 0.00 0.00
8:53 pm 20:53 Cloudy 54 12.2 51 10.6 90 90 VRB 7 11 29.76 1008 10 16 0.00 0.00
9:53 pm 21:53 Cloudy 54 12.2 51 10.6 90 90 WNW 8 13 29.78 1009 10 16 0.00 0.00
10:53 pm 22:53 Cloudy 54 12.2 51 10.6 90 90 W 8 13 29.80 1009 10 16 0.00 0.00
11:18 pm 23:18 Cloudy 54 12.2 51 10.6 90 90 W 7 11 29.81 1010 10 16 0.00 0.00
11:53 pm 23:53 Cloudy 54 12.2 51 10.6 90 90 W 8 13 29.80 1009 10 16 0.00 0.00

Powered by AerisWeather